,,Stat1,,Stat2,,Stat3,,Stat4,,Wind1,,Wind1,
time,status,PR1M_SUM,status,RH1M_AVG,status,SR1M_AVG,status,TA1M_AVG,status,W1dAve1m,status,W1sAve1m,
1999-08-26, 00:00:01,VALID,0,VALID,95.9082,VALID,0,VALID,19.2477,VALID,204,VALID,2.19531,
1999-08-26, 00:01:00,VALID,0,VALID,95.6895,VALID,0.0169808,VALID,19.2415,VALID,198,VALID,2.93189,
1999-08-26, 00:02:00,VALID,0,VALID,95.425,VALID,0,VALID,19.3033,VALID,214,VALID,2.71615,
1999-08-26, 00:03:00,VALID,0,VALID,95.4276,VALID,0,VALID,19.3026,VALID,216,VALID,2.00676,
1999-08-26, 00:04:00,VALID,0,VALID,95.5929,VALID,0,VALID,19.3031,VALID,205,VALID,2.04785,
1999-08-26, 00:05:01,VALID,0.2,VALID,95.8777,VALID,-0.0169808,VALID,19.2738,VALID,214,VALID,1.42328,
1999-08-26, 00:06:00,VALID,0,VALID,95.9222,VALID,0.0169808,VALID,19.2347,VALID,207,VALID,2.17516,
1999-08-26, 00:07:00,VALID,0,VALID,95.6908,VALID,0,VALID,19.2355,VALID,213,VALID,3.0114,
1999-08-26, 00:08:00,VALID,0,VALID,95.4746,VALID,0,VALID,19.2708,VALID,204,VALID,2.82312,
1999-08-26, 00:09:00,VALID,0,VALID,95.5458,VALID,-0.0169808,VALID,19.2966,VALID,225,VALID,2.22804,
1999-08-26, 00:10:00,VALID,0,VALID,95.7429,VALID,0,VALID,19.2904,VALID,192,VALID,2.08273,
1999-08-26, 00:11:00,VALID,0,VALID,95.8764,VALID,0,VALID,19.2447,VALID,203,VALID,2.04587,
1999-08-26, 00:12:00,VALID,0,VALID,96.1244,VALID,-0.0169808,VALID,19.2191,VALID,200,VALID,1.6532,
1999-08-26, 00:13:00,VALID,0,VALID,96.1435,VALID,0,VALID,19.2032,VALID,193,VALID,2.09609,
1999-08-26, 00:14:00,VALID,0,VALID,96.2465,VALID,0,VALID,19.1997,VALID,202,VALID,1.73314,
1999-08-26, 00:15:00,VALID,0,VALID,96.1969,VALID,0,VALID,19.1838,VALID,211,VALID,2.42246,
1999-08-26, 00:16:00,VALID,0,VALID,96.0901,VALID,0,VALID,19.2029,VALID,212,VALID,1.76649,
1999-08-26, 00:17:00,VALID,0,VALID,95.8218,VALID,0,VALID,19.2096,VALID,194,VALID,2.22813,
1999-08-26, 00:18:00,VALID,0,VALID,95.4721,VALID,0,VALID,19.2514,VALID,214,VALID,1.96514,
1999-08-26, 00:19:00,VALID,0,VALID,95.5191,VALID,0,VALID,19.277,VALID,189,VALID,1.6947,
1999-08-26, 00:20:00,VALID,0,VALID,95.4632,VALID,0,VALID,19.2832,VALID,204,VALID,1.87609,
1999-08-26, 00:21:00,VALID,0.2,VALID,95.7404,VALID,0,VALID,19.2844,VALID,215,VALID,1.29174,
1999-08-26, 00:22:00,VALID,0,VALID,95.809,VALID,-0.0169808,VALID,19.2549,VALID,198,VALID,1.48109,
1999-08-26, 00:23:00,VALID,0,VALID,95.4848,VALID,-0.0169808,VALID,19.2389,VALID,201,VALID,1.78351,
1999-08-26, 00:24:00,VALID,0,VALID,95.247,VALID,0,VALID,19.2676,VALID,180,VALID,2.81482,
1999-08-26, 00:25:00,VALID,0,VALID,95.3475,VALID,0,VALID,19.2999,VALID,176,VALID,1.64391,
1999-08-26, 00:26:00,VALID,0,VALID,95.1974,VALID,0,VALID,19.2837,VALID,200,VALID,1.67311,
1999-08-26, 00:27:00,VALID,0,VALID,95.2038,VALID,-0.0339617,VALID,19.2872,VALID,195,VALID,1.81479,
1999-08-26, 00:28:00,VALID,0.2,VALID,95.5242,VALID,-0.0169808,VALID,19.277,VALID,142,VALID,1.58906,
1999-08-26, 00:29:00,VALID,0,VALID,95.4975,VALID,-0.0339617,VALID,19.2544,VALID,180,VALID,1.42023,
1999-08-26, 00:30:00,VALID,0,VALID,95.1008,VALID,0,VALID,19.2422,VALID,209,VALID,1.94785,
1999-08-26, 00:31:00,VALID,0,VALID,94.4383,VALID,0,VALID,19.2807,VALID,195,VALID,2.12088,
1999-08-26, 00:32:00,VALID,0,VALID,94.5959,VALID,-0.0339617,VALID,19.3357,VALID,191,VALID,1.4125,
1999-08-26, 00:33:00,VALID,0,VALID,94.8871,VALID,-0.0169808,VALID,19.319,VALID,172,VALID,1.14623,
1999-08-26, 00:34:00,VALID,0,VALID,95.2839,VALID,0,VALID,19.2837,VALID,182,VALID,1.13877,
1999-08-26, 00:35:00,VALID,0,VALID,95.5178,VALID,-0.0339617,VALID,19.226,VALID,199,VALID,0.983724,
1999-08-26, 00:36:00,VALID,0,VALID,95.6501,VALID,-0.0169808,VALID,19.1972,VALID,198,VALID,1.40112,
1999-08-26, 00:37:00,VALID,0,VALID,96.0023,VALID,-0.0339617,VALID,19.1549,VALID,226,VALID,1.44696,
1999-08-26, 00:38:00,VALID,0,VALID,96.3749,VALID,-0.0169808,VALID,19.1099,VALID,231,VALID,1.33059,
1999-08-26, 00:39:00,VALID,0,VALID,96.7449,VALID,-0.0679233,VALID,19.0448,VALID,224,VALID,1.60494,
1999-08-26, 00:40:00,VALID,0,VALID,96.9344,VALID,-0.0339617,VALID,18.9963,VALID,211,VALID,1.62479,
1999-08-26, 00:41:00,VALID,0,VALID,97.1442,VALID,0,VALID,18.9575,VALID,217,VALID,1.57545,
1999-08-26, 00:42:00,VALID,0,VALID,97.2587,VALID,-0.0169808,VALID,18.9347,VALID,219,VALID,1.5665,
1999-08-26, 00:43:00,VALID,0,VALID,97.4189,VALID,0,VALID,18.918,VALID,214,VALID,1.12754,
1999-08-26, 00:44:00,VALID,0,VALID,97.5753,VALID,0,VALID,18.9093,VALID,221,VALID,1.02693,
1999-08-26, 00:45:00,VALID,0,VALID,97.6529,VALID,0.0169808,VALID,18.8894,VALID,223,VALID,1.32422,
1999-08-26, 00:46:00,VALID,0,VALID,97.7521,VALID,0.0169808,VALID,18.8795,VALID,217,VALID,0.889106,
1999-08-26, 00:47:00,VALID,0,VALID,97.8347,VALID,0.0509425,VALID,18.8628,VALID,222,VALID,0.599414,
1999-08-26, 00:48:01,VALID,0,VALID,97.85,VALID,0,VALID,18.8601,VALID,207,VALID,1.00541,
1999-08-26, 00:49:01,VALID,0,VALID,97.9275,VALID,0,VALID,18.8536,VALID,212,VALID,0.363076,
1999-08-26, 00:50:00,VALID,0,VALID,97.939,VALID,0.0169808,VALID,18.8541,VALID,209,VALID,0.720052,
1999-08-26, 00:51:00,VALID,0,VALID,97.9581,VALID,0.0339617,VALID,18.8474,VALID,191,VALID,0.633705,
1999-08-26, 00:52:00,VALID,0,VALID,97.9848,VALID,0.0169808,VALID,18.8573,VALID,178,VALID,0.560238,
1999-08-26, 00:53:00,VALID,0,VALID,97.9962,VALID,0,VALID,18.8377,VALID,179,VALID,0.678454,
1999-08-26, 00:54:00,VALID,0,VALID,97.972,VALID,0.0169808,VALID,18.8476,VALID,190,VALID,0.757179,
1999-08-26, 00:55:00,VALID,0,VALID,97.9593,VALID,0.0509425,VALID,18.8506,VALID,189,VALID,0.631168,
1999-08-26, 00:56:00,VALID,0,VALID,97.9288,VALID,0.0339617,VALID,18.8504,VALID,185,VALID,0.772615,
1999-08-26, 00:57:00,VALID,0,VALID,97.9326,VALID,0,VALID,18.8541,VALID,176,VALID,0.723133,
1999-08-26, 00:58:00,VALID,0,VALID,97.9631,VALID,0,VALID,18.8571,VALID,153,VALID,0.981836,
1999-08-26, 00:59:00,VALID,0,VALID,98,VALID,0.0169808,VALID,18.8474,VALID,134,VALID,0.994038,
1999-08-26, 01:00:00,VALID,0,VALID,97.9848,VALID,0.0169808,VALID,18.8248,VALID,143,VALID,1.58281,
1999-08-26, 01:01:00,VALID,0,VALID,97.9657,VALID,0,VALID,18.8409,VALID,149,VALID,0.963976,
1999-08-26, 01:02:00,VALID,0,VALID,97.9428,VALID,0.0169808,VALID,18.8506,VALID,175,VALID,0.561328,
1999-08-26, 01:03:00,VALID,0,VALID,97.9492,VALID,0.0169808,VALID,18.8409,VALID,232,VALID,0.926082,
1999-08-26, 01:04:00,VALID,0,VALID,97.9822,VALID,0,VALID,18.8183,VALID,229,VALID,0.971423,
1999-08-26, 01:05:00,VALID,0,VALID,98.1183,VALID,0,VALID,18.8089,VALID,220,VALID,0.941406,
1999-08-26, 01:06:00,VALID,0,VALID,98.2289,VALID,0.0339617,VALID,18.7795,VALID,216,VALID,0.527902,
1999-08-26, 01:07:00,VALID,0,VALID,98.3001,VALID,0.0339617,VALID,18.7631,VALID,206,VALID,0.507196,
1999-08-26, 01:08:00,VALID,0,VALID,98.323,VALID,0.0339617,VALID,18.7504,VALID,197,VALID,0.811061,
1999-08-26, 01:09:00,VALID,0,VALID,98.351,VALID,0.0339617,VALID,18.7407,VALID,198,VALID,0.772804,
1999-08-26, 01:10:01,VALID,0,VALID,98.3179,VALID,0.0169808,VALID,18.7539,VALID,198,VALID,0.967105,
1999-08-26, 01:11:01,VALID,0,VALID,98.2556,VALID,0.0679233,VALID,18.7795,VALID,204,VALID,0.563939,
1999-08-26, 01:12:00,VALID,0,VALID,98.2086,VALID,0,VALID,18.7793,VALID,196,VALID,0.78468,
1999-08-26, 01:13:00,VALID,0,VALID,98.2225,VALID,0.0509425,VALID,18.7992,VALID,215,VALID,0.338086,
1999-08-26, 01:14:00,VALID,0,VALID,98.2264,VALID,0.0339617,VALID,18.7892,VALID,232,VALID,0.620271,
1999-08-26, 01:15:00,VALID,0,VALID,98.2823,VALID,0.0509425,VALID,18.7895,VALID,226,VALID,0.589453,
1999-08-26, 01:16:00,VALID,0,VALID,98.3014,VALID,-0.0679233,VALID,18.7939,VALID,219,VALID,0.805773,
1999-08-26, 01:17:00,VALID,0,VALID,98.3268,VALID,-0.0679233,VALID,18.7909,VALID,229,VALID,0.849609,
1999-08-26, 01:18:00,VALID,0,VALID,98.3624,VALID,-0.101885,VALID,18.7844,VALID,234,VALID,0.571114,
1999-08-26, 01:19:00,VALID,0,VALID,98.3993,VALID,-0.101885,VALID,18.778,VALID,233,VALID,0.428248,
1999-08-26, 01:20:00,VALID,0,VALID,98.454,VALID,-0.0679233,VALID,18.7583,VALID,241,VALID,0.734375,
1999-08-26, 01:21:00,VALID,0,VALID,98.5163,VALID,-0.0169808,VALID,18.7422,VALID,243,VALID,0.615179,
1999-08-26, 01:22:00,VALID,0,VALID,98.5977,VALID,-0.101885,VALID,18.723,VALID,225,VALID,1.08614,
1999-08-26, 01:23:00,VALID,0,VALID,98.674,VALID,-0.0679233,VALID,18.7195,VALID,220,VALID,0.862048,
1999-08-26, 01:24:00,VALID,0,VALID,98.735,VALID,-0.0679233,VALID,18.7034,VALID,229,VALID,1.30427,
1999-08-26, 01:25:00,VALID,0,VALID,98.7439,VALID,-0.0679233,VALID,18.7066,VALID,203,VALID,0.8419,
1999-08-26, 01:26:00,VALID,0,VALID,98.7821,VALID,-0.0509425,VALID,18.7163,VALID,204,VALID,0.669408,
1999-08-26, 01:27:00,VALID,0,VALID,98.7808,VALID,-0.0339617,VALID,18.7131,VALID,212,VALID,0.933308,
1999-08-26, 01:28:00,VALID,0,VALID,98.7197,VALID,-0.0849042,VALID,18.7059,VALID,197,VALID,1.44219,
1999-08-26, 01:29:00,VALID,0,VALID,98.6727,VALID,-0.0679233,VALID,18.7322,VALID,189,VALID,1.28988,
1999-08-26, 01:30:00,VALID,0,VALID,98.5811,VALID,-0.0509425,VALID,18.7387,VALID,179,VALID,0.96543,
1999-08-26, 01:31:00,VALID,0,VALID,98.4769,VALID,0,VALID,18.7601,VALID,194,VALID,1.49414,
1999-08-26, 01:32:00,VALID,0,VALID,98.3739,VALID,0.0339617,VALID,18.8022,VALID,194,VALID,1.23574,
1999-08-26, 01:33:01,VALID,0,VALID,98.2162,VALID,0.0509425,VALID,18.8148,VALID,202,VALID,1.14103,
1999-08-26, 01:34:00,VALID,0,VALID,98.0979,VALID,0.0679233,VALID,18.8405,VALID,197,VALID,1.20868,
1999-08-26, 01:35:00,VALID,0,VALID,97.9911,VALID,0.0509425,VALID,18.8499,VALID,190,VALID,1.23589,
1999-08-26, 01:36:00,VALID,0,VALID,97.9759,VALID,0.0679233,VALID,18.8633,VALID,191,VALID,0.662946,
1999-08-26, 01:37:00,VALID,0,VALID,97.9886,VALID,0.0509425,VALID,18.8707,VALID,159,VALID,0.663651,
1999-08-26, 01:38:00,VALID,0,VALID,97.9797,VALID,0.0339617,VALID,18.8539,VALID,200,VALID,0.721012,
1999-08-26, 01:39:00,VALID,0,VALID,97.9085,VALID,0.0339617,VALID,18.8474,VALID,178,VALID,1.10515,
1999-08-26, 01:40:00,VALID,0,VALID,97.9237,VALID,0,VALID,18.8439,VALID,174,VALID,0.729441,
1999-08-26, 01:41:00,VALID,0,VALID,97.8919,VALID,0.0509425,VALID,18.8412,VALID,189,VALID,1.09005,
1999-08-26, 01:42:00,VALID,0,VALID,97.9085,VALID,0.0679233,VALID,18.8312,VALID,207,VALID,1.00667,
1999-08-26, 01:43:00,VALID,0,VALID,97.9364,VALID,0.0509425,VALID,18.8215,VALID,189,VALID,1.04785,
1999-08-26, 01:44:01,VALID,0,VALID,97.9822,VALID,0.0169808,VALID,18.8215,VALID,201,VALID,0.878906,
1999-08-26, 01:45:00,VALID,0,VALID,97.9352,VALID,0.0339617,VALID,18.8183,VALID,184,VALID,1.26777,
1999-08-26, 01:46:00,VALID,0,VALID,97.897,VALID,-0.0679233,VALID,18.8294,VALID,212,VALID,1.04774,
1999-08-26, 01:47:00,VALID,0,VALID,97.897,VALID,-0.0679233,VALID,18.826,VALID,213,VALID,0.974414,
1999-08-26, 01:48:00,VALID,0,VALID,97.911,VALID,-0.0849042,VALID,18.8361,VALID,183,VALID,0.884615,
1999-08-26, 01:49:00,VALID,0,VALID,97.9631,VALID,-0.101885,VALID,18.8294,VALID,208,VALID,0.48273,
1999-08-26, 01:50:00,VALID,0,VALID,97.972,VALID,-0.101885,VALID,18.8301,VALID,193,VALID,0.513021,
1999-08-26, 01:51:00,VALID,0,VALID,98.0115,VALID,-0.0849042,VALID,18.8135,VALID,199,VALID,0.765625,
1999-08-26, 01:52:00,VALID,0,VALID,97.9924,VALID,-0.0849042,VALID,18.7971,VALID,219,VALID,1.02118,
1999-08-26, 01:53:00,VALID,0,VALID,98.0089,VALID,-0.0849042,VALID,18.807,VALID,206,VALID,0.526727,
1999-08-26, 01:54:00,VALID,0,VALID,98.0077,VALID,-0.0679233,VALID,18.807,VALID,227,VALID,0.743877,
1999-08-26, 01:55:01,VALID,0,VALID,97.9733,VALID,-0.0849042,VALID,18.8008,VALID,218,VALID,0.939762,
1999-08-26, 01:56:00,VALID,0,VALID,97.9975,VALID,-0.0849042,VALID,18.7971,VALID,227,VALID,0.659128,
1999-08-26, 01:57:00,VALID,0,VALID,97.9581,VALID,-0.0679233,VALID,18.7941,VALID,220,VALID,0.990282,
1999-08-26, 01:58:00,VALID,0,VALID,97.864,VALID,-0.0849042,VALID,18.7911,VALID,211,VALID,1.12188,
1999-08-26, 01:59:00,VALID,0,VALID,97.7254,VALID,-0.0849042,VALID,18.7941,VALID,214,VALID,1.01151,
1999-08-26, 02:00:00,VALID,0,VALID,97.6313,VALID,-0.0849042,VALID,18.8299,VALID,220,VALID,1.2875,
1999-08-26, 02:01:00,VALID,0,VALID,97.4888,VALID,-0.101885,VALID,18.8426,VALID,204,VALID,1.43207,
1999-08-26, 02:02:00,VALID,0,VALID,97.4634,VALID,-0.0849042,VALID,18.8781,VALID,231,VALID,0.995508,
1999-08-26, 02:03:00,VALID,0,VALID,97.4164,VALID,-0.0849042,VALID,18.8844,VALID,218,VALID,1.30168,
1999-08-26, 02:04:00,VALID,0,VALID,97.4914,VALID,-0.0679233,VALID,18.8749,VALID,211,VALID,1.09211,
1999-08-26, 02:05:00,VALID,0,VALID,97.5613,VALID,-0.101885,VALID,18.8687,VALID,192,VALID,1.12869,
1999-08-26, 02:06:01,VALID,0,VALID,97.5931,VALID,-0.101885,VALID,18.8495,VALID,222,VALID,1.20826,
1999-08-26, 02:07:00,VALID,0,VALID,97.6363,VALID,-0.0849042,VALID,18.826,VALID,208,VALID,0.901933,
1999-08-26, 02:08:00,VALID,0,VALID,97.5893,VALID,-0.0679233,VALID,18.8391,VALID,204,VALID,1.67969,
1999-08-26, 02:09:00,VALID,0,VALID,97.5041,VALID,-0.0849042,VALID,18.8491,VALID,217,VALID,1.67673,
1999-08-26, 02:10:00,VALID,0,VALID,97.4329,VALID,-0.101885,VALID,18.8714,VALID,234,VALID,1.3308,
1999-08-26, 02:11:00,VALID,0,VALID,97.3591,VALID,-0.0849042,VALID,18.8781,VALID,225,VALID,1.58943,
1999-08-26, 02:12:00,VALID,0,VALID,97.3451,VALID,-0.101885,VALID,18.9079,VALID,225,VALID,1.16216,
1999-08-26, 02:13:00,VALID,0,VALID,97.218,VALID,-0.0849042,VALID,18.8945,VALID,217,VALID,1.69922,
1999-08-26, 02:14:00,VALID,0,VALID,97.0438,VALID,-0.0509425,VALID,18.8975,VALID,226,VALID,1.64104,
1999-08-26, 02:15:00,VALID,0,VALID,96.8925,VALID,-0.0849042,VALID,18.9137,VALID,222,VALID,1.63242,
1999-08-26, 02:16:00,VALID,0,VALID,96.9179,VALID,-0.0849042,VALID,18.9234,VALID,176,VALID,1.2474,
1999-08-26, 02:17:01,VALID,0,VALID,96.9128,VALID,-0.0509425,VALID,18.91,VALID,198,VALID,0.748438,
1999-08-26, 02:18:00,VALID,0,VALID,96.4741,VALID,-0.0509425,VALID,18.8973,VALID,192,VALID,1.52304,
1999-08-26, 02:19:00,VALID,0,VALID,96.1486,VALID,-0.0849042,VALID,18.9266,VALID,209,VALID,1.34313,
1999-08-26, 02:20:00,VALID,0,VALID,95.7455,VALID,-0.0849042,VALID,18.946,VALID,203,VALID,1.78754,
1999-08-26, 02:21:00,VALID,0,VALID,95.1313,VALID,-0.0679233,VALID,18.9908,VALID,195,VALID,1.65915,
1999-08-26, 02:22:00,VALID,0,VALID,95.0028,VALID,-0.0849042,VALID,19.0499,VALID,195,VALID,1.91077,
1999-08-26, 02:23:00,VALID,0,VALID,95.0601,VALID,-0.101885,VALID,19.0788,VALID,189,VALID,1.52323,
1999-08-26, 02:24:00,VALID,0,VALID,95.0919,VALID,-0.101885,VALID,19.0654,VALID,212,VALID,1.41427,
1999-08-26, 02:25:00,VALID,0,VALID,95.041,VALID,-0.0849042,VALID,19.0624,VALID,191,VALID,1.69922,
1999-08-26, 02:26:00,VALID,0,VALID,95.1847,VALID,-0.0509425,VALID,19.052,VALID,181,VALID,1.44038,
1999-08-26, 02:27:00,VALID,0,VALID,95.1974,VALID,-0.0169808,VALID,19.0589,VALID,181,VALID,1.39024,
1999-08-26, 02:28:01,VALID,0,VALID,95.1809,VALID,-0.101885,VALID,19.0659,VALID,160,VALID,1.91055,
1999-08-26, 02:29:00,VALID,0,VALID,95.2419,VALID,-0.0509425,VALID,19.0522,VALID,173,VALID,1.49137,
1999-08-26, 02:30:00,VALID,0,VALID,95.1338,VALID,-0.0849042,VALID,19.0559,VALID,170,VALID,1.84922,
1999-08-26, 02:31:00,VALID,0,VALID,95.3894,VALID,-0.0169808,VALID,19.0644,VALID,193,VALID,0.913194,
1999-08-26, 02:32:00,VALID,0,VALID,95.1796,VALID,-0.0169808,VALID,19.0473,VALID,205,VALID,1.35391,
1999-08-26, 02:33:00,VALID,0,VALID,95.1249,VALID,0,VALID,19.0478,VALID,191,VALID,1.20313,
1999-08-26, 02:34:00,VALID,0.2,VALID,95.0156,VALID,0.0339617,VALID,19.0577,VALID,196,VALID,1.95456,
1999-08-26, 02:35:00,VALID,0,VALID,94.6532,VALID,0,VALID,19.0769,VALID,188,VALID,2.74392,
1999-08-26, 02:36:00,VALID,0,VALID,94.3327,VALID,0.0169808,VALID,19.1293,VALID,181,VALID,1.7625,
1999-08-26, 02:37:00,VALID,0,VALID,94.3785,VALID,0,VALID,19.1512,VALID,178,VALID,1.42105,
1999-08-26, 02:38:00,VALID,0,VALID,94.1076,VALID,0,VALID,19.1716,VALID,181,VALID,1.96094,
1999-08-26, 02:39:00,VALID,0,VALID,93.7859,VALID,0,VALID,19.1805,VALID,205,VALID,2.03252,
1999-08-26, 02:40:00,VALID,0,VALID,93.5138,VALID,0.0169808,VALID,19.2064,VALID,178,VALID,2.32093,
1999-08-26, 02:41:00,VALID,0,VALID,93.2989,VALID,0.0169808,VALID,19.2551,VALID,168,VALID,1.65892,
1999-08-26, 02:42:00,VALID,0,VALID,93.0026,VALID,-0.0169808,VALID,19.2546,VALID,192,VALID,1.94684,
1999-08-26, 02:43:00,VALID,0,VALID,92.9734,VALID,0,VALID,19.278,VALID,177,VALID,1.62227,
1999-08-26, 02:44:00,VALID,0,VALID,93.0459,VALID,-0.0169808,VALID,19.274,VALID,175,VALID,1.66961,
1999-08-26, 02:45:00,VALID,0,VALID,92.6186,VALID,0,VALID,19.2775,VALID,175,VALID,1.94395,
1999-08-26, 02:46:00,VALID,0,VALID,92.7101,VALID,-0.0169808,VALID,19.2999,VALID,183,VALID,1.56901,
1999-08-26, 02:47:00,VALID,0,VALID,92.438,VALID,-0.0169808,VALID,19.3036,VALID,193,VALID,2.41504,
1999-08-26, 02:48:00,VALID,0,VALID,92.5334,VALID,0,VALID,19.316,VALID,197,VALID,1.42147,
1999-08-26, 02:49:01,VALID,0,VALID,92.672,VALID,-0.0169808,VALID,19.3165,VALID,190,VALID,1.43709,
1999-08-26, 02:50:00,VALID,0,VALID,92.7407,VALID,0.0169808,VALID,19.2966,VALID,197,VALID,1.69184,
1999-08-26, 02:51:00,VALID,0,VALID,92.4368,VALID,-0.0169808,VALID,19.2934,VALID,198,VALID,2.37857,
1999-08-26, 02:52:00,VALID,0,VALID,92.6745,VALID,0,VALID,19.3265,VALID,217,VALID,1.31373,
1999-08-26, 02:53:00,VALID,0,VALID,92.7229,VALID,0,VALID,19.3031,VALID,200,VALID,2.23602,
1999-08-26, 02:54:00,VALID,0,VALID,93.0382,VALID,0,VALID,19.2678,VALID,196,VALID,1.41681,
1999-08-26, 02:55:00,VALID,0,VALID,93.0853,VALID,0,VALID,19.2554,VALID,198,VALID,1.61287,
1999-08-26, 02:56:00,VALID,0,VALID,93.2468,VALID,0,VALID,19.2325,VALID,206,VALID,1.59745,
1999-08-26, 02:57:00,VALID,0,VALID,93.4833,VALID,-0.0169808,VALID,19.2002,VALID,194,VALID,1.4657,
1999-08-26, 02:58:00,VALID,0,VALID,93.7694,VALID,0,VALID,19.1517,VALID,200,VALID,1.52598,
1999-08-26, 02:59:00,VALID,0,VALID,93.6982,VALID,0,VALID,19.1221,VALID,198,VALID,1.96854,
1999-08-26, 03:00:00,VALID,0,VALID,93.9105,VALID,0,VALID,19.1027,VALID,182,VALID,1.80273,
1999-08-26, 03:01:00,VALID,0,VALID,94.0402,VALID,0,VALID,19.0933,VALID,177,VALID,1.81076,
1999-08-26, 03:02:00,VALID,0,VALID,93.9055,VALID,-0.0169808,VALID,19.0803,VALID,193,VALID,2.19199,
1999-08-26, 03:03:00,VALID,0,VALID,93.8609,VALID,-0.0169808,VALID,19.093,VALID,195,VALID,1.8774,
1999-08-26, 03:04:00,VALID,0,VALID,94.0301,VALID,-0.0339617,VALID,19.0997,VALID,209,VALID,1.78146,
1999-08-26, 03:05:00,VALID,0,VALID,93.9779,VALID,0,VALID,19.087,VALID,200,VALID,1.77995,
1999-08-26, 03:06:00,VALID,0,VALID,93.8025,VALID,0,VALID,19.0769,VALID,196,VALID,1.96205,
1999-08-26, 03:07:00,VALID,0,VALID,93.6728,VALID,0.0169808,VALID,19.1064,VALID,194,VALID,1.78413,
1999-08-26, 03:08:00,VALID,0,VALID,93.3409,VALID,-0.0509425,VALID,19.1417,VALID,195,VALID,1.73252,
1999-08-26, 03:09:00,VALID,0,VALID,93.2162,VALID,-0.0169808,VALID,19.1644,VALID,172,VALID,1.37859,
1999-08-26, 03:10:01,VALID,0,VALID,93.3269,VALID,-0.0169808,VALID,19.1745,VALID,161,VALID,1.54831,
1999-08-26, 03:11:00,VALID,0,VALID,93.482,VALID,0,VALID,19.1815,VALID,181,VALID,1.73252,
1999-08-26, 03:12:00,VALID,0,VALID,93.6295,VALID,0,VALID,19.1318,VALID,182,VALID,1.58594,
1999-08-26, 03:13:00,VALID,0,VALID,93.7058,VALID,-0.0169808,VALID,19.1189,VALID,180,VALID,1.52441,
1999-08-26, 03:14:00,VALID,0,VALID,93.7071,VALID,0,VALID,19.1226,VALID,179,VALID,1.38322,
1999-08-26, 03:15:00,VALID,0,VALID,93.688,VALID,0,VALID,19.1062,VALID,200,VALID,1.76855,
1999-08-26, 03:16:00,VALID,0,VALID,93.5647,VALID,-0.0339617,VALID,19.1196,VALID,195,VALID,1.66927,
1999-08-26, 03:17:00,VALID,0,VALID,93.4413,VALID,0,VALID,19.1256,VALID,185,VALID,1.69414,
1999-08-26, 03:18:00,VALID,0,VALID,93.4413,VALID,-0.0169808,VALID,19.1318,VALID,194,VALID,1.73778,
1999-08-26, 03:19:00,VALID,0,VALID,93.3409,VALID,-0.0169808,VALID,19.1353,VALID,190,VALID,2.07504,
1999-08-26, 03:20:00,VALID,0,VALID,93.1743,VALID,0,VALID,19.1703,VALID,185,VALID,1.69271,
1999-08-26, 03:21:00,VALID,0,VALID,93.3536,VALID,0,VALID,19.1838,VALID,191,VALID,1.08951,
1999-08-26, 03:22:00,VALID,0,VALID,93.3459,VALID,0,VALID,19.1835,VALID,194,VALID,1.57977,
1999-08-26, 03:23:00,VALID,0,VALID,93.4362,VALID,0,VALID,19.1611,VALID,191,VALID,1.5183,
1999-08-26, 03:24:00,VALID,0,VALID,93.3714,VALID,-0.0169808,VALID,19.1611,VALID,174,VALID,1.51119,
1999-08-26, 03:25:00,VALID,0,VALID,93.4222,VALID,-0.0169808,VALID,19.187,VALID,177,VALID,1.34827,
1999-08-26, 03:26:00,VALID,0,VALID,93.3485,VALID,-0.0169808,VALID,19.1741,VALID,193,VALID,1.70539,
1999-08-26, 03:27:00,VALID,0,VALID,93.2862,VALID,0,VALID,19.184,VALID,198,VALID,1.59223,
1999-08-26, 03:28:00,VALID,0,VALID,93.3396,VALID,0,VALID,19.1865,VALID,197,VALID,1.54336,
1999-08-26, 03:29:00,VALID,0,VALID,93.1043,VALID,0,VALID,19.1865,VALID,200,VALID,1.94038,
1999-08-26, 03:30:00,VALID,0,VALID,93.1857,VALID,-0.0169808,VALID,19.2255,VALID,206,VALID,1.59258,
1999-08-26, 03:31:00,VALID,0,VALID,93.1183,VALID,0,VALID,19.2128,VALID,212,VALID,1.80122,
1999-08-26, 03:32:00,VALID,0,VALID,93.1756,VALID,0,VALID,19.2193,VALID,201,VALID,1.8,
1999-08-26, 03:33:01,VALID,0,VALID,92.9975,VALID,0,VALID,19.2362,VALID,205,VALID,1.77244,
1999-08-26, 03:34:00,VALID,0,VALID,92.9416,VALID,0,VALID,19.2355,VALID,201,VALID,1.73026,
1999-08-26, 03:35:00,VALID,0,VALID,93.0675,VALID,0,VALID,19.2484,VALID,202,VALID,1.46202,
1999-08-26, 03:36:00,VALID,0,VALID,92.8971,VALID,0,VALID,19.235,VALID,201,VALID,1.67388,
1999-08-26, 03:37:00,VALID,0,VALID,93.0217,VALID,0,VALID,19.2514,VALID,210,VALID,1.42804,
1999-08-26, 03:38:00,VALID,0,VALID,93.1832,VALID,-0.0169808,VALID,19.2484,VALID,200,VALID,0.91838,
1999-08-26, 03:39:00,VALID,0,VALID,93.028,VALID,0,VALID,19.2357,VALID,198,VALID,1.67272,
1999-08-26, 03:40:00,VALID,0,VALID,93.0967,VALID,-0.0169808,VALID,19.2449,VALID,197,VALID,1.35609,
1999-08-26, 03:41:00,VALID,0,VALID,92.967,VALID,0.0169808,VALID,19.2581,VALID,203,VALID,1.54461,
1999-08-26, 03:42:00,VALID,0,VALID,93.0865,VALID,0.0169808,VALID,19.2713,VALID,200,VALID,1.19989,
1999-08-26, 03:43:00,VALID,0,VALID,92.9823,VALID,0,VALID,19.2608,VALID,206,VALID,1.60605,
1999-08-26, 03:44:00,VALID,0,VALID,92.8805,VALID,0.0169808,VALID,19.2579,VALID,211,VALID,1.93832,
1999-08-26, 03:45:00,VALID,0,VALID,92.3694,VALID,0.0169808,VALID,19.2907,VALID,209,VALID,1.92832,
1999-08-26, 03:46:00,VALID,0,VALID,92.3528,VALID,-0.0169808,VALID,19.3257,VALID,211,VALID,1.69119,
1999-08-26, 03:47:00,VALID,0,VALID,92.7534,VALID,-0.0169808,VALID,19.3359,VALID,211,VALID,1.35,
1999-08-26, 03:48:00,VALID,0,VALID,92.7152,VALID,0,VALID,19.2842,VALID,205,VALID,1.73998,
1999-08-26, 03:49:00,VALID,0,VALID,92.8424,VALID,0,VALID,19.2648,VALID,197,VALID,1.57216,
1999-08-26, 03:50:00,VALID,0,VALID,92.8729,VALID,0,VALID,19.2551,VALID,200,VALID,1.58876,
1999-08-26, 03:51:00,VALID,0,VALID,93.0802,VALID,0,VALID,19.2419,VALID,195,VALID,1.4471,
1999-08-26, 03:52:00,VALID,0,VALID,92.8564,VALID,0,VALID,19.2422,VALID,199,VALID,1.55839,
1999-08-26, 03:53:00,VALID,0,VALID,93.1539,VALID,-0.0169808,VALID,19.2454,VALID,190,VALID,1.20991,
1999-08-26, 03:54:00,VALID,0,VALID,93.3167,VALID,-0.0509425,VALID,19.2196,VALID,204,VALID,1.19447,
1999-08-26, 03:55:01,VALID,0,VALID,93.5659,VALID,-0.0169808,VALID,19.1867,VALID,199,VALID,1.20066,
1999-08-26, 03:56:00,VALID,0,VALID,93.7198,VALID,0,VALID,19.1621,VALID,198,VALID,1.36595,
1999-08-26, 03:57:00,VALID,0,VALID,93.8991,VALID,-0.0339617,VALID,19.1425,VALID,196,VALID,1.2681,
1999-08-26, 03:58:00,VALID,0,VALID,93.9194,VALID,-0.0339617,VALID,19.1258,VALID,199,VALID,1.54219,
1999-08-26, 03:59:00,VALID,0,VALID,93.9767,VALID,0,VALID,19.1198,VALID,203,VALID,1.63919,
1999-08-26, 04:00:00,VALID,0,VALID,94.011,VALID,0,VALID,19.1194,VALID,206,VALID,1.49629,
1999-08-26, 04:01:00,VALID,0,VALID,93.9449,VALID,-0.0169808,VALID,19.1201,VALID,211,VALID,1.58594,
1999-08-26, 04:02:00,VALID,0,VALID,93.9423,VALID,-0.0169808,VALID,19.1156,VALID,211,VALID,1.5334,
1999-08-26, 04:03:00,VALID,0,VALID,94.1115,VALID,0,VALID,19.1323,VALID,204,VALID,1.49479,
1999-08-26, 04:04:00,VALID,0,VALID,94.1013,VALID,-0.0339617,VALID,19.1131,VALID,204,VALID,1.59416,
1999-08-26, 04:05:00,VALID,0,VALID,94.1038,VALID,-0.0169808,VALID,19.1034,VALID,205,VALID,1.72266,
1999-08-26, 04:06:00,VALID,0,VALID,94.1687,VALID,-0.0169808,VALID,19.1099,VALID,214,VALID,1.60848,